Погода в Тумуле

Россия / Республика Саха (Якутия)     62˚54′26″N   129˚33′00″E
темп.,
°C
ветер,
м/с
пор.,
м/с
влажн.,
%
обл.,
%
осадки,
мм/ч
давл.,
гПа
погр.,
м
16 января, сб
сб1600:00−45˚всв129991 0.0 102726
03:00−45˚св129894 0.0 102726
06:00−44˚св129898 0.0 102727
09:00−44˚ссв119899 0.0 102824
12:00−44˚ссв129579 0.0 102843
15:00−44˚с119678 0.0 102831
18:00−43˚ссз129392 0.0 103033
21:00−43˚сз229393 0.0 103035
17 января, вс
вс1700:00−43˚зсз229289 0.0 103058
03:00−43˚з229593 0.0 103091
06:00−40˚з2495100 0.1 1030229
09:00−39˚з2595100 0.1 1031236
12:00−38˚з2493100 0.1 1031352
15:00−37˚з2494100 0.1 1031297
18:00−38˚з2495100 0.1 1032193
21:00−38˚з2395100 0.1 1032157
18 января, пн
пн1800:00−39˚з2296100 0.1 103298
03:00−39˚з1296100 0.1 103250
06:00−41˚зюз1197100 0.0 103233
09:00−42˚ю1199100 0.1 103220
12:00−41˚юв1198100 0.0 103141
15:00−43˚вюв129997 0.0 103018
18:00−46˚вюв129959 0.0 103118
21:00−47˚вюв129959 0.0 103018
19 января, вт
вт1900:00−48˚вюв129957 0.0 102918
03:00−48˚в129957 0.0 102920
06:00−49˚в129959 0.0 102923
09:00−49˚в129958 0.0 102924
12:00−47˚в129761 0.0 102873
15:00−47˚в229860 0.0 102926
18:00−48˚в129857 0.0 102920
21:00−49˚в129856 0.0 102918
20 января, ср
ср2000:00−49˚в119954 0.0 102918
03:00−48˚вюв119972 0.0 102921
06:00−47˚юв119975 0.0 102918
09:00−46˚юв119778 0.0 102924
12:00−44˚юв119580 0.0 102847
15:00−44˚вюв119685 0.0 102829
18:00−45˚вюв119777 0.0 102918
21:00−45˚в119781 0.0 102918